Location: Newark
(11.0000°N, 10.0000°W)
Time: 08:58:30
(UTC+00:00)

Envisat - Visible Passes

Search period start: 26 March 2019 00:00
Search period end: 05 April 2019 00:00
Orbit: 764 x 766 km, 98.2° (Epoch: 25 March)

Date Brightness Start Highest point End Pass type
(mag) Time Alt. Az. Time Alt. Az. Time Alt. Az.
26 Mar 3.0 19:22:02 10° SSE 19:27:01 59° ENE 19:31:59 10° N visible
27 Mar 5.3 20:25:11 10° SSW 20:29:11 24° W 20:33:12 10° NW visible
28 Mar 3.4 19:47:27 10° S 19:52:29 67° WSW 19:57:31 10° NNW visible
29 Mar 3.4 19:11:04 10° SSE 19:15:50 43° ENE 19:20:36 10° N visible
29 Mar 6.1 20:53:22 10° WSW 20:54:43 11° W 20:56:05 10° W visible
30 Mar 4.8 20:13:30 10° SSW 20:17:59 32° W 20:22:27 10° NW visible
31 Mar 3.0 19:36:13 10° SSE 19:41:17 90° ENE 19:46:22 10° NNW visible
01 Apr 5.8 20:40:34 10° SW 20:43:30 15° W 20:46:26 10° WNW visible
02 Apr 4.2 20:01:59 10° S 20:06:47 43° W 20:11:34 10° NNW visible
03 Apr 3.0 19:25:05 10° SSE 19:30:06 66° ENE 19:35:07 10° N visible
04 Apr 5.4 20:28:31 10° SSW 20:32:17 21° W 20:36:03 10° NW visible
